Погода в Кунграде

Погода в Кунграде : погода сейчас, прогноз погоды и архив. Всё, что Вы хотите узнать о погоде в Кунграде!

Хотите узнать прогноз погоды в Кунграде? Тогда Вам сюда: Погода в Кунграде

Поиск расширенной информации на нашем сайте:

Другие новости

Новости СМИ2

Главная страница сайта

Новости сайта

03.07.2017

Напоминаем, что на нашем специализированном сайте Метеоцентр.Азия вы можете получить высокодетализированные автоматические прогнозы погоды по пунктам России, СНГ и мира в авиационном формате (включающие направление и скорость ветра, видимость, явления погоды, количество и форму облачности, нижнюю и верхнюю границу облачности).

Рекомендуем: веник сорго

Погода в Кунграде - сегодня

Время (UTC), дата Ветер
(°,м/с) 
Видим.   Явления Облачность Т
(°С)
Тd
(°С)
f(%) Тe
(°С)
Pmin
(гПа)
dP
(гПа)
Po
(мм)
O2
(г/м3)
Тmin Tmax R s Состояние
почвы
09 13.01.18 060 (СВ) 20000 м    8/8 600 м средняя 
[Sc|Ac trans]
-0.2 -8.4 54 -3  1026.1  -0.2  764  309           
12 13.01.18 050 (СВ) 20000 м    10/10 600 м 
[Sc]
-1 -7.6 61 -4  1027.3  1.2  765  310           
15 13.01.18 050 (СВ) 20000 м    10/10 600 м 
[Sc]
-2.3 -7.8 66 -5  1028.5  1.2  765  312    +0.3       
18 13.01.18 050 (СВ) 20000 м    10/10 600 м 
[Sc]
-3.8 -7.5 75 -7  1029.7  766  314    +0.3       
21 13.01.18 050 (СВ) 20000 м    10/10 600 м 
[Sc]
-4.5 -7.6 79 -7  1030.1  0.4  767  315           
00 14.01.18 040 (СВ) 20000 м    10/10 600 м 
[Sc]
-5.2 -8.1 80 -8  1030.5  0.4  767  316           
03 14.01.18 040 (СВ) 20000 м  слаб. снег  10/10 600 м 
[Sc]
-5.6 -8.2 82 -9  1030.7  0.2  767  316      0.0     
06 14.01.18 050 (СВ) 20000 м    10/10 600 м 
[Sc]
-5.2 -9.3 73 -8  1031.7  768  316  -5.7    0.0     
09 14.01.18 050 (СВ) 20000 м  слаб. снег  10/10 600 м 
[Sc]
-3.7 -8.1 71 -7  1032.4  0.7  768  315           
12 14.01.18 040 (СВ) 20000 м    10/10 600 м 
[Sc]
-3.7 -7 78 -7  1031.3  -1.1  767  314           
15 14.01.18 020 (С) 20000 м    3/0 верхняя 
[Ci sp]
-7.7 -9.9 84 -10  1033.6  2.1  769  320    -2.5       
18 14.01.18 020 (С) 20000 м    5/5 600 м 
[Sc]
-10.2 -12.9 81 -14  1033.8  0.2  769  323    -2.5  0.0     
21 14.01.18 010 (С) 20000 м    5/5 600 м 
[Sc]
-12.8 -14.3 89 -16  1034.9  1.1  770  327           
00 15.01.18 030 (СВ) 20000 м    4/4 600 м 
[Sc]
-14.2 -16.5 83 -18  1033.7  -1.4  769  328           
03 15.01.18 060 (СВ) 20000 м    4/4 600 м 
[Sc]
-15.3 -17.6 83 -19  1033  -0.6  768  330           
06 15.01.18 040 (СВ) 20000 м    5/0 верхняя 
[Ci sp]
-13 -16.9 73 -17  1035.3  2.2  770  327  -15.4         
09 15.01.18 040 (СВ) 20000 м    6/0 верхняя 
[Ci sp]
-7.5 -15.2 54 -12  1033.9  -1  769  320           
12 15.01.18 040 (СВ) 20000 м    5/0 верхняя 
[Ci sp]
-6.9 -15.5 50 -10  1033.6  -0.3  769  319           
15 15.01.18 010 (С) 20000 м    ясно 
-11 -15.4 70 -15  1034.6  0.8  770  325    -6.2       
18 15.01.18 010 (С) 20000 м    ясно 
-14 -16 85 -18  1035.2  0.4  770  328    -6.2       
21 15.01.18 350 (С) 20000 м    ясно 
-16.7 -18.6 85 -19  1035.4  0.2  770  332           
00 16.01.18 360 (С) 20000 м    ясно 
-18 -19.9 85 -21  1035.1  -0.4  770  334           
03 16.01.18 360 (С) 20000 м    ясно 
-19.1 -21 85 -19  1035  -0.1  770  335           
06 16.01.18 360 (С) 20000 м    ясно 
-14.6 -18.1 75 -17  1035  0.1  770  329  -19.3         
09 16.01.18 010 (С) 20000 м    ясно 
-8.8 -15.4 59 -10  1034.6  -0.2  770  322           
Время (UTC), дата Ветер
(°,м/с) 
Видим.   Явления Облачность Т
(°С)
Тd
(°С)
f(%) Тe
(°С)
Pmin
(гПа)
dP
(гПа)
Po
(мм)
O2
(г/м3)
Тmin Tmax R s Состояние
почвы

Для получения пояснительной информации подведите курсор к названию столбца.

ПОГОДА в Кунграде - архив

Всё, что Вы хотите узнать о погоде в Кунграде - удобно и подробно!

Выберите нужную дату (начиная с 1 января 2015* года) и нажмите кнопку "Найти".
Будут отображены архивные сводки погоды по пункту Кунград, начиная с указанной даты.


Отображать данные в формате CSV (для использования в таблицах Excel)


Внимание! Наш архив погоды предназначен исключительно для личного некоммерческого использования в познавательных целях. Если Вам необходимы официальные справки о состоянии погоды (для производственных, юридических, коммерческих и т.п. целей), обращайтесь в органы Росгидромета.

*Примечание: данная дата относится к архиву по метеостанциям СССР (Россия, СНГ, Балтия).
Архив по метеостанциям Зарубежной Европы и Азии (кроме Китая) хранится 10 дней, по другим регионам земного шара (Китай, Африка, Америка, Австралия, Океания) - 1 день.

Кунград - район местоположения метеостанции


Название, широта, долгота, высота метеостанции:
Кунград 43.1°ш. 58.9°д. 64 м над ур. моря [Узбекистан]

Дополнительная информация

В oтличие oт бoльшинства пoгoдных сайтoв мы публикуем пoдрoбную метеoинфoрмацию в детальнoм прoфессиoнальнoм фoрмате.

Характеристики температуры и влажнoсти вoздуха измеряются на высoте 2 м в тени вдали oт зданий и деревьев.
Скoрoсть ветра измеряется на высoте 10 м (на урoвне рoста челoвека скoрoсть ветра ниже в 1.5-2 раза). Если метеoстанция нахoдится в гoрoде или в лесу, тo скoрoсть ветра занижена на 2-4 м/с пo сравнению с oткрытым местoм. Скoрoсть ветра над акватoриями крупных рек и oзёр, а также на вершинах хoлмoв на 2-5 м/с выше, чем в oбычных услoвиях.
Атмoсфернoе давление в разных тoчках местнoсти мoжет значительнo oтличаться oт давления на метеoстанции, в зависимoсти oт услoвий рельефа (при пoдъёме на 10 м давление пoнижается примернo на 1 мм рт.ст.).